Location: White Ridge parking lot
(35.4984°N, 106.8413°W)
Time: 04:22:45
(UTC-06:00)

XW-2D - Visible Passes

Search period start: 16 September 2019 00:00
Search period end: 26 September 2019 00:00
Orbit: 509 x 527 km, 97.5° (Epoch: 16 September)

Date Brightness Start Highest point End Pass type
(mag) Time Alt. Az. Time Alt. Az. Time Alt. Az.
20 Sep ? 06:27:04 10° NE 06:30:20 27° E 06:33:34 10° SSE visible
21 Sep ? 06:13:31 10° NE 06:16:11 18° E 06:18:49 10° SE visible
22 Sep ? 06:00:29 10° ENE 06:01:59 12° E 06:03:29 10° ESE visible
23 Sep ? 19:32:33 10° WSW 19:33:37 11° W 19:34:40 10° WNW visible
